Flag for Germany Weather past 2 weeks in Witzenhausen, Hesse, Germany

Now
63 °F

Partly sunny.


Feels Like: 63 °F
Forecast: 48 / 69 °F
Wind: 5 mph from Southwest

Location: Kassel / Calden

Current Time: Sep 30, 2014 at 11:51:27 AM

Latest Report: Sep 30, 2014 at 11:20 AM


Visibility: N/A

Pressure: 30.27 "Hg

Humidity: 83%

Dew point: 57 °F

Location of WitzenhausenLocation

Historic Weather in Witzenhausen — Graph

°F

Witzenhausen temperature yesterday

Maximum temperature yesterday: 73 °F (at 2:50 PM)
Minimum temperature yesterday: 54 °F (at 5:50 AM)
Average temperature yesterday: 64 °F

Past Weeks' High & Low Weather Summary

 TemperatureHumidityPressure
High73 °F (Sep 16, 3:50 PM)100% (Sep 16, 6:01 AM)30.39 "Hg (Sep 16, 6:01 AM)
Low43 °F (Sep 22, 12:50 PM)54% (Sep 26, 6:20 AM)29.83 "Hg (Sep 24, 5:20 PM)
Average59 °F82%30.07 "Hg
* Reported Sep 15 10:20 AM — Sep 30 10:50 AM, Witzenhausen, Weather by CustomWeather, © 2014

Note: Actual official high and low records may vary slightly from our data, if they occured in-between our weather recording intervals... More about our weather records

Advertising

Witzenhausen weather history for previous 24 hours

 ConditionsComfort  
Time TempWeatherWind HumidityBarometerVisibility
10:50 AM
Sep 30
63 °FPartly sunny.3 mph83%30.27 "HgN/A
10:20 AM63 °FOvercast.5 mph83%30.27 "HgN/A
9:50 AM63 °FPartly sunny.3 mph83%30.27 "HgN/A
9:20 AM61 °FPartly sunny.3 mph88%30.27 "HgN/A
8:50 AM59 °FPartly sunny.2 mph94%30.24 "HgN/A
8:20 AM59 °FBroken clouds.3 mph94%30.24 "HgN/A
7:50 AM57 °FPassing clouds.2 mph94%30.24 "HgN/A
7:20 AM57 °FPassing clouds.6 mph94%30.24 "HgN/A
6:50 AM57 °FPassing clouds.2 mph94%30.24 "HgN/A
6:20 AM59 °FPassing clouds.3 mph88%30.24 "HgN/A
5:50 AM59 °FPassing clouds.1 mph94%30.24 "HgN/A
9:50 PM
Sep 29
63 °FClear.2 mph88%30.24 "Hg10 mi
9:20 PM63 °FClear.1 mph88%30.24 "Hg10 mi
8:50 PM63 °FPassing clouds.3 mph88%30.24 "HgN/A
8:20 PM64 °FPartly cloudy.5 mph83%30.24 "HgN/A
7:50 PM64 °FBroken clouds.6 mph83%30.24 "HgN/A
7:20 PM64 °FBroken clouds.5 mph83%30.21 "HgN/A
6:50 PM66 °FPartly sunny.5 mph78%30.21 "HgN/A
6:20 PM68 °FBroken clouds.6 mph73%30.21 "HgN/A
5:50 PM68 °FPartly sunny.7 mph73%30.21 "HgN/A
5:20 PM70 °FPassing clouds.7 mph64%30.21 "HgN/A
4:50 PM72 °FSunny.6 mph61%30.21 "Hg10 mi
4:20 PM72 °FSunny.9 mph57%30.21 "Hg10 mi
3:50 PM72 °FPassing clouds.8 mph57%30.21 "HgN/A
3:20 PM73 °FScattered clouds.9 mph57%30.21 "HgN/A
2:50 PM73 °FPassing clouds.10 mph57%30.21 "HgN/A
2:20 PM72 °FSunny.10 mph61%30.21 "Hg10 mi
1:50 PM70 °FSunny.10 mph69%30.21 "Hg10 mi
1:20 PM70 °FSunny.13 mph69%30.21 "Hg10 mi
12:50 PM68 °FSunny.13 mph73%30.21 "Hg10 mi
12:20 PM68 °FSunny.12 mph73%30.21 "Hg10 mi
11:50 AM68 °FPassing clouds.9 mph69%30.21 "HgN/A
11:20 AM66 °FSunny.13 mph78%30.21 "Hg10 mi
Weather by CustomWeather, © 2014

See weather overviewHow to use our weather pages